Terug naar catalogus

CZ-6A DEB

ActiefPO
NORAD 60981·DEBRIS·🇨🇳 China

Gelanceerd Aug 6, 2024 vanaf Taiyuan Satellite Launch Center

Loading…

Volgende Passages (komende 24 uur)

TLE

VersSource: Space-Track

Epoch: Sep 14, 2026, 05:19 UTC

1 60981U 24140MG  26257.22154367  .00000509  00000-0  27332-3 0  9991
2 60981  88.8435 252.7140 0103494 282.5259  76.4363 14.08952927106538

Volg CZ-6A DEB in realtime met AllMySat

Download on the App Store